Location: Unspecified
(49.2170°N, 0.0000°E)
Time: 17:13:37
(UTC+00:00)

Envisat - Pass Details

Date: 01 December 2020
Orbit: 764 x 766 km, 98.1° (Epoch: 20 January)

Event Time Altitude Azimuth Distance (km) Brightness Sun altitude
Rises 16:35:55 0° 156° (SSE) 3,222 6.3 -5.3°
Reaches altitude 10° 16:38:13 10° 154° (SSE) 2,300 5.5 -5.6°
Maximum altitude 16:43:15 69° 72° (ENE) 821 3.0 -6.4°
Drops below altitude 10° 16:48:20 10° 350° (N) 2,317 5.3 -7.1°
Sets 16:50:39 0° 348° (NNW) 3,247 6.1 -7.4°
